G6WOV-13 Weather Reports


time (UTC)temp
C
wind
direction
speed
KPH
gust
KPH
rain 1hr
cm
rain 24hr
cm
rain mn
cm
humidity
%
barometer
mb
20260904230446 13 138 0.0 3.2 0.00 0.00 0.00 84 1016.3
20260904225946 13 81 1.6 1.6 0.00 0.38 0.00 84 1015.9
20260904225447 13 174 1.6 3.2 0.00 0.38 0.00 84 1015.9
20260904224946 13 142 1.6 3.2 0.00 0.38 0.00 84 1016.3
20260904224445 13 104 1.6 3.2 0.00 0.38 0.00 84 1016.3
20260904223947 13 37 1.6 1.6 0.00 0.38 0.00 84 1016.3
20260904223446 13 91 0.0 1.6 0.00 0.38 0.00 84 1015.9
20260904222947 13 133 1.6 1.6 0.00 0.38 0.00 84 1015.9
20260904222446 13 108 1.6 1.6 0.00 0.38 0.00 84 1015.9
20260904221946 13 73 1.6 1.6 0.00 0.38 0.00 84 1015.9
20260904221446 13 112 0.0 1.6 0.00 0.38 0.00 83 1015.9
20260904220946 13 155 0.0 3.2 0.00 0.38 0.00 83 1015.9
20260904220450 13 78 0.0 1.6 0.00 0.38 0.00 83 1015.9
20260904215946 14 83 1.6 1.6 0.00 0.38 0.00 82 1015.9
20260904215446 14 94 1.6 1.6 0.00 0.38 0.00 82 1015.9
20260904214946 14 108 0.0 1.6 0.00 0.38 0.00 82 1015.9
20260904214446 14 21 0.0 1.6 0.00 0.38 0.00 82 1015.9
20260904213945 14 15 1.6 3.2 0.00 0.38 0.00 81 1015.9
20260904213446 14 84 0.0 4.8 0.00 0.38 0.00 81 1015.9
20260904212946 14 67 0.0 1.6 0.00 0.38 0.00 81 1015.9
20260904212446 14 78 1.6 1.6 0.00 0.38 0.00 81 1015.6
20260904211946 14 39 0.0 3.2 0.00 0.38 0.00 81 1015.9
20260904211445 15 74 0.0 1.6 0.00 0.38 0.00 81 1015.6
20260904210948 15 129 0.0 4.8 0.00 0.38 0.00 81 1015.6
20260904210446 15 113 1.6 3.2 0.00 0.38 0.00 81 1015.6
20260904205947 15 120 3.2 4.8 0.00 0.38 0.00 81 1015.6
20260904205446 15 63 1.6 3.2 0.00 0.38 0.00 80 1015.6
20260904204947 15 122 1.6 3.2 0.00 0.38 0.00 80 1015.6
20260904204446 15 6 0.0 3.2 0.00 0.38 0.00 80 1015.6
20260904203948 15 51 1.6 3.2 0.00 0.38 0.00 79 1015.2
20260904203446 15 8 0.0 3.2 0.00 0.38 0.00 79 1015.2
20260904202946 15 11 1.6 4.8 0.00 0.38 0.00 79 1015.2
20260904202446 15 82 1.6 3.2 0.00 0.38 0.00 79 1015.2
20260904201947 15 25 1.6 4.8 0.00 0.38 0.00 78 1015.6
20260904201446 15 150 0.0 8.0 0.00 0.38 0.00 78 1015.2
20260904200946 15 340 3.2 8.0 0.00 0.38 0.00 77 1015.2
20260904200447 15 54 1.6 3.2 0.00 0.38 0.00 77 1014.9
20260904195945 15 9 3.2 8.0 0.00 0.38 0.00 77 1015.2
20260904195446 15 44 1.6 9.7 0.00 0.38 0.00 77 1015.2
20260904194947 15 78 1.6 8.0 0.00 0.38 0.00 76 1015.2
20260904194446 15 113 1.6 8.0 0.00 0.38 0.00 76 1015.2
20260904193946 15 347 3.2 4.8 0.00 0.38 0.00 76 1014.9
20260904193447 16 345 0.0 4.8 0.00 0.38 0.00 76 1015.2
20260904192946 16 59 1.6 4.8 0.00 0.38 0.00 75 1014.9
20260904192446 16 6 1.6 4.8 0.00 0.38 0.00 75 1015.2
20260904191946 16 15 1.6 3.2 0.00 0.38 0.00 75 1014.9
20260904191446 16 339 1.6 3.2 0.00 0.38 0.00 75 1014.9
20260904190946 16 305 3.2 9.7 0.00 0.38 0.00 74 1014.9
20260904190445 16 314 1.6 3.2 0.00 0.38 0.00 74 1014.6
20260904185946 16 283 3.2 4.8 0.00 0.38 0.00 74 1014.6
20260904185446 16 79 3.2 8.0 0.00 0.38 0.00 74 1014.6
20260904184946 16 9 3.2 3.2 0.00 0.38 0.00 73 1014.6
20260904184446 16 336 3.2 8.0 0.00 0.38 0.00 72 1014.6
20260904183952 16 7 1.6 8.0 0.00 0.38 0.00 72 1014.6
20260904183446 16 53 3.2 8.0 0.00 0.38 0.00 72 1014.6
20260904182946 16 354 4.8 9.7 0.00 0.38 0.00 71 1014.6
20260904182446 17 28 3.2 16.1 0.00 0.38 0.00 71 1014.6
20260904181946 17 292 3.2 11.3 0.00 0.38 0.00 70 1014.6
20260904181446 17 112 3.2 9.7 0.00 0.38 0.00 70 1014.2
20260904180946 17 328 4.8 11.3 0.00 0.38 0.00 69 1014.6
20260904180446 17 279 3.2 14.5 0.00 0.38 0.00 69 1014.2
20260904175946 17 336 3.2 9.7 0.00 0.38 0.00 68 1014.2
20260904175445 17 77 6.4 14.5 0.00 0.38 0.00 68 1014.2
20260904174946 17 35 4.8 11.3 0.00 0.38 0.00 69 1014.2
20260904174446 17 353 3.2 9.7 0.00 0.38 0.00 69 1014.2
20260904173946 17 293 3.2 8.0 0.00 0.38 0.00 68 1014.2
20260904173450 17 343 4.8 8.0 0.00 0.38 0.00 68 1014.2
20260904172946 17 320 4.8 12.9 0.00 0.38 0.00 68 1014.2
20260904172446 17 234 1.6 9.7 0.00 0.38 0.00 68 1013.9
20260904171946 17 314 6.4 11.3 0.00 0.38 0.00 68 1014.2
20260904171449 17 355 1.6 9.7 0.00 0.38 0.00 67 1013.9
20260904170947 17 288 4.8 8.0 0.00 0.38 0.00 67 1014.2
20260904170446 17 324 4.8 8.0 0.00 0.38 0.00 67 1014.2
20260904165946 17 25 1.6 8.0 0.00 0.38 0.00 67 1013.9
20260904165447 17 309 4.8 11.3 0.00 0.38 0.00 66 1013.9
20260904164946 17 313 1.6 8.0 0.00 0.38 0.00 67 1014.2
20260904164447 17 314 1.6 8.0 0.00 0.38 0.00 67 1013.9
20260904163947 17 351 3.2 4.8 0.00 0.38 0.00 67 1013.5
20260904163446 17 304 8.0 11.3 0.00 0.38 0.00 67 1013.9
20260904162946 17 331 3.2 11.3 0.00 0.38 0.00 68 1013.9
20260904162446 17 0 3.2 16.1 0.00 0.38 0.00 68 1013.5
20260904161947 17 211 4.8 14.5 0.00 0.38 0.00 68 1013.5
20260904161446 17 283 6.4 14.5 0.00 0.38 0.00 68 1013.5
20260904160948 17 312 4.8 12.9 0.00 0.38 0.00 68 1013.5
20260904160446 17 277 6.4 14.5 0.00 0.38 0.00 69 1013.5
20260904155947 17 341 4.8 11.3 0.00 0.38 0.00 68 1013.9
20260904155446 17 266 9.7 14.5 0.00 0.38 0.00 68 1013.9
20260904154946 17 302 4.8 17.7 0.00 0.38 0.00 68 1013.5
20260904154448 18 322 4.8 11.3 0.00 0.38 0.00 69 1013.5
20260904153952 18 358 4.8 9.7 0.00 0.38 0.00 69 1013.5
20260904153446 18 51 6.4 20.9 0.00 0.38 0.00 67 1013.5
20260904152946 18 259 4.8 9.7 0.00 0.38 0.00 66 1013.5
20260904152448 18 6 9.7 22.5 0.00 0.38 0.00 66 1013.5
20260904151946 18 313 9.7 11.3 0.00 0.38 0.00 67 1013.5
20260904151447 18 263 8.0 17.7 0.00 0.38 0.00 67 1013.5
20260904150946 18 225 8.0 16.1 0.00 0.38 0.00 66 1013.5
20260904150448 18 34 9.7 12.9 0.00 0.38 0.00 65 1013.5
20260904145946 18 15 4.8 12.9 0.00 0.38 0.00 65 1013.5
20260904145447 18 308 1.6 11.3 0.00 0.38 0.00 67 1013.2
20260904144946 18 31 3.2 9.7 0.00 0.38 0.00 65 1013.2
20260904144447 18 13 9.7 16.1 0.00 0.38 0.00 65 1013.2
20260904143947 18 18 8.0 14.5 0.00 0.38 0.00 64 1012.9
20260904143446 18 358 8.0 12.9 0.00 0.38 0.00 63 1012.9
20260904142952 18 352 11.3 16.1 0.00 0.38 0.00 63 1012.9
20260904142452 18 17 4.8 14.5 0.00 0.38 0.00 64 1013.2
20260904141946 18 329 6.4 14.5 0.00 0.38 0.00 63 1013.2
20260904141446 18 292 6.4 12.9 0.00 0.38 0.00 64 1012.9
20260904140946 18 342 6.4 11.3 0.00 0.38 0.00 63 1013.2
20260904140446 18 328 3.2 11.3 0.00 0.38 0.00 65 1012.9
20260904135948 18 25 6.4 14.5 0.00 0.38 0.00 66 1012.9
20260904135447 18 293 8.0 14.5 0.00 0.38 0.00 67 1012.9
20260904134949 18 263 8.0 12.9 0.00 0.38 0.00 68 1012.9
20260904134446 18 12 9.7 14.5 0.00 0.38 0.00 67 1012.5
20260904133947 18 280 6.4 17.7 0.00 0.38 0.00 67 1012.5
20260904133446 18 357 4.8 20.9 0.00 0.38 0.00 67 1012.9
20260904132946 18 17 4.8 8.0 0.00 0.38 0.00 70 1012.5
20260904132446 18 44 4.8 11.3 0.00 0.38 0.00 70 1012.9
20260904131946 18 341 11.3 25.7 0.00 0.38 0.00 68 1012.5
20260904131446 18 293 8.0 12.9 0.00 0.38 0.00 68 1012.5
20260904130946 18 318 6.4 12.9 0.00 0.38 0.00 68 1012.5
20260904130447 18 287 8.0 11.3 0.00 0.38 0.00 68 1012.5
20260904125949 18 325 6.4 12.9 0.00 0.38 0.00 68 1012.2
20260904125446 18 268 6.4 16.1 0.00 0.38 0.00 66 1012.2
20260904124946 18 328 6.4 17.7 0.00 0.38 0.00 66 1012.2
20260904124446 18 335 1.6 14.5 0.00 0.38 0.00 66 1012.5
20260904123946 18 333 6.4 11.3 0.00 0.38 0.00 66 1012.2
20260904123446 18 275 8.0 12.9 0.00 0.38 0.00 67 1012.2
20260904122946 18 343 3.2 8.0 0.00 0.38 0.00 69 1012.2
20260904122446 18 293 6.4 16.1 0.00 0.38 0.00 69 1012.2
20260904121946 18 274 8.0 17.7 0.00 0.38 0.00 67 1012.2
20260904121446 18 292 4.8 11.3 0.00 0.38 0.00 66 1011.9
20260904120947 18 333 4.8 11.3 0.00 0.38 0.00 67 1011.9
20260904120446 18 52 3.2 12.9 0.00 0.38 0.00 67 1011.9
20260904115946 18 310 6.4 12.9 0.00 0.38 0.00 67 1011.9
20260904115446 18 6 4.8 9.7 0.00 0.38 0.00 69 1011.9
20260904114947 18 298 3.2 9.7 0.00 0.38 0.00 69 1011.9
20260904114447 18 301 3.2 14.5 0.00 0.38 0.00 69 1011.9
20260904113945 18 331 4.8 16.1 0.00 0.38 0.00 69 1011.9
20260904113446 18 294 8.0 12.9 0.00 0.38 0.00 74 1011.5
20260904112946 18 234 9.7 12.9 0.00 0.38 0.00 74 1011.9
20260904112446 18 215 6.4 14.5 0.00 0.38 0.00 74 1011.2
20260904111947 18 332 4.8 16.1 0.00 0.38 0.00 74 1011.9
20260904111446 18 40 6.4 11.3 0.00 0.38 0.00 76 1011.2
20260904110945 18 322 8.0 11.3 0.00 0.38 0.00 76 1011.2
20260904110446 18 296 6.4 14.5 0.00 0.38 0.00 75 1011.5
20260904105946 18 0 3.2 11.3 0.00 0.38 0.00 76 1011.2
20260904105446 18 205 4.8 11.3 0.00 0.38 0.00 77 1011.2
20260904104946 18 48 6.4 14.5 0.00 0.38 0.00 76 1011.2
20260904104446 18 291 6.4 12.9 0.00 0.38 0.00 76 1010.8
20260904103946 18 289 8.0 12.9 0.00 0.38 0.00 78 1010.8
20260904103446 18 17 6.4 9.7 0.00 0.38 0.00 80 1010.8
20260904102946 18 342 6.4 12.9 0.00 0.38 0.00 80 1010.8
20260904102447 17 337 1.6 11.3 0.00 0.38 0.00 80 1010.8
20260904101946 17 303 3.2 9.7 0.00 0.38 0.00 79 1010.8
20260904101446 17 18 3.2 12.9 0.00 0.38 0.00 79 1010.8
20260904100946 17 260 11.3 16.1 0.00 0.38 0.00 79 1010.5
20260904100446 17 39 3.2 8.0 0.00 0.38 0.00 81 1010.8
20260904095946 18 267 6.4 8.0 0.00 0.38 0.00 81 1010.5
20260904095446 18 298 3.2 9.7 0.00 0.38 0.00 79 1010.5
20260904094946 18 347 4.8 14.5 0.00 0.38 0.00 79 1010.5
20260904094446 18 317 4.8 11.3 0.00 0.38 0.00 80 1010.8
20260904093946 18 279 1.6 12.9 0.00 0.38 0.00 80 1010.5
20260904093446 18 337 4.8 11.3 0.00 0.38 0.00 81 1010.5
20260904092946 18 15 8.0 12.9 0.00 0.38 0.00 81 1010.5
20260904092445 18 327 4.8 11.3 0.00 0.38 0.00 82 1010.2
20260904091945 18 316 6.4 16.1 0.00 0.38 0.00 81 1010.5
20260904091446 18 323 6.4 12.9 0.00 0.38 0.00 84 1010.2
20260904090946 18 46 6.4 14.5 0.00 0.38 0.00 84 1009.8
20260904090447 18 345 6.4 20.9 0.00 0.38 0.00 84 1010.2
20260904085952 18 293 4.8 9.7 0.00 0.38 0.00 85 1009.8
20260904085446 18 292 6.4 14.5 0.00 0.38 0.00 85 1009.8
20260904084946 18 295 4.8 11.3 0.00 0.38 0.00 86 1009.5
20260904084446 17 306 11.3 12.9 0.00 0.38 0.00 86 1009.8
20260904083948 17 50 14.5 33.8 0.00 0.38 0.00 85 1009.8
20260904083446 17 22 8.0 16.1 0.00 0.38 0.00 89 1009.8
20260904082946 17 336 6.4 11.3 0.00 0.38 0.00 91 1009.8
20260904082446 17 8 6.4 17.7 0.00 0.38 0.00 92 1009.5
20260904081946 17 292 9.7 17.7 0.00 0.38 0.00 94 1009.5
20260904081446 17 292 8.0 9.7 0.00 0.38 0.00 95 1009.5
20260904080946 17 21 14.5 20.9 0.00 0.38 0.00 95 1009.8
20260904080447 17 287 6.4 11.3 0.18 0.38 0.00 95 1009.5
20260904075947 16 329 3.2 8.0 0.13 0.36 0.00 95 1009.5
20260904075447 17 284 8.0 11.3 0.13 0.36 0.00 95 1009.5
20260904074947 17 318 4.8 9.7 0.18 0.33 0.00 95 1009.5
20260904074446 17 2 1.6 8.0 0.00 0.30 0.00 95 1009.1
20260904073947 17 345 3.2 4.8 0.00 0.30 0.00 95 1009.5
20260904073446 17 21 8.0 11.3 0.00 0.30 0.00 94 1009.5
20260904072946 17 262 4.8 11.3 0.00 0.30 0.00 94 1009.1
20260904072446 17 263 8.0 12.9 0.00 0.30 0.00 94 1009.1
20260904071948 16 295 4.8 11.3 0.00 0.30 0.00 94 1009.1
20260904071445 16 314 3.2 14.5 0.00 0.30 0.00 94 1009.1
20260904070946 16 236 4.8 11.3 0.00 0.30 0.00 95 1008.8
20260904070446 16 319 6.4 14.5 0.00 0.30 0.00 95 1009.1
20260904065520 17 265 6.4 14.5 0.00 0.30 0.00 95 1008.8
20260904064946 17 296 4.8 11.3 0.00 0.30 0.00 95 1008.8
20260904064446 17 286 4.8 11.3 0.00 0.30 0.00 95 1008.8
20260904063946 17 224 11.3 16.1 0.00 0.30 0.00 95 1008.8
20260904063446 17 283 3.2 20.9 0.00 0.30 0.00 94 1008.8
20260904062946 17 338 9.7 11.3 0.00 0.30 0.00 94 1008.8
20260904062446 17 338 8.0 16.1 0.00 0.30 0.00 94 1008.5
20260904061946 17 323 3.2 17.7 0.00 0.30 0.00 94 1008.8
20260904061446 17 303 4.8 12.9 0.00 0.30 0.00 94 1008.5
20260904060946 17 87 12.9 17.7 0.00 0.30 0.00 94 1008.1
20260904060446 17 82 9.7 17.7 0.18 0.30 0.00 94 1008.1
20260904055946 17 255 6.4 12.9 0.18 0.30 0.00 94 1008.1
20260904055446 17 62 9.7 16.1 0.13 0.28 0.00 94 1008.1
20260904054946 17 308 6.4 16.1 0.43 0.28 0.00 94 1008.1
20260904054447 17 335 9.7 16.1 0.61 0.25 0.00 93 1008.1
20260904053946 17 230 4.8 14.5 0.61 0.20 0.00 92 1007.8
20260904053446 18 273 8.0 20.9 0.89 0.15 0.00 89 1008.1
20260904052946 20 301 11.3 24.1 0.61 0.10 0.00 86 1007.8
20260904052446 20 256 3.2 9.7 0.00 0.00 0.00 88 1007.1
20260904051946 20 348 4.8 9.7 0.00 0.00 0.00 88 1007.1
20260904051453 20 237 3.2 8.0 0.00 0.00 0.00 88 1007.1
20260904050946 20 143 4.8 12.9 0.00 0.00 0.00 88 1007.1
20260904050446 20 136 3.2 8.0 0.00 0.00 0.00 88 1007.1
20260904045945 20 147 9.7 12.9 0.00 0.00 0.00 88 1007.5
20260904045446 20 154 1.6 12.9 0.00 0.00 0.00 87 1007.1
20260904044946 20 123 1.6 4.8 0.00 0.00 0.00 87 1007.5
20260904044446 20 128 1.6 11.3 0.00 0.00 0.00 86 1007.1
20260904043946 20 187 3.2 12.9 0.00 0.00 0.00 86 1007.5
20260904043446 20 194 1.6 8.0 0.00 0.00 0.00 86 1007.5
20260904042946 20 73 1.6 12.9 0.00 0.00 0.00 86 1007.1
20260904042446 20 26 3.2 12.9 0.00 0.00 0.00 86 1007.5
20260904041946 20 17 1.6 4.8 0.00 0.00 0.00 86 1007.1
20260904041447 20 168 3.2 4.8 0.00 0.00 0.00 86 1007.5
20260904040946 20 38 3.2 4.8 0.00 0.00 0.00 85 1007.5
20260904040005 20 170 3.2 8.0 0.00 0.00 0.00 85 1007.5
20260904035446 20 161 1.6 4.8 0.00 0.00 0.00 85 1007.5
20260904034946 20 179 1.6 9.7 0.00 0.00 0.00 85 1007.8
20260904034446 20 245 3.2 8.0 0.00 0.00 0.00 85 1007.5
20260904033946 20 91 1.6 4.8 0.00 0.00 0.00 85 1007.5
20260904033446 20 181 6.4 11.3 0.00 0.00 0.00 85 1007.5
20260904032946 20 197 1.6 8.0 0.00 0.00 0.00 86 1007.8
20260904032447 20 182 3.2 8.0 0.00 0.00 0.00 86 1008.1
20260904031946 20 136 1.6 8.0 0.00 0.00 0.00 86 1008.1
20260904031446 20 183 3.2 8.0 0.00 0.00 0.00 87 1008.1
20260904030947 20 19 1.6 4.8 0.00 0.00 0.00 87 1008.1
20260904030447 20 141 8.0 9.7 0.00 0.00 0.00 87 1008.1
20260904025945 20 349 3.2 4.8 0.00 0.00 0.00 87 1007.8
20260904025446 20 343 3.2 8.0 0.00 0.00 0.00 87 1008.1
20260904024946 20 165 3.2 12.9 0.00 0.00 0.00 87 1008.1
20260904024447 20 158 1.6 9.7 0.00 0.00 0.00 86 1008.1
20260904023946 20 90 1.6 8.0 0.00 0.00 0.00 86 1008.5
20260904023446 20 285 3.2 4.8 0.00 0.00 0.00 86 1008.5
20260904022947 20 144 1.6 4.8 0.00 0.00 0.00 86 1008.5
20260904022446 20 284 4.8 12.9 0.00 0.00 0.00 86 1008.8
20260904021946 20 125 1.6 4.8 0.00 0.00 0.00 86 1008.8
20260904021446 20 344 1.6 11.3 0.00 0.00 0.00 86 1008.8
20260904020948 20 102 1.6 8.0 0.00 0.00 0.00 86 1008.8
20260904020447 20 95 1.6 3.2 0.00 0.00 0.00 86 1008.8
20260904015946 20 130 1.6 3.2 0.00 0.00 0.00 86 1008.8
20260904015447 20 162 1.6 9.7 0.00 0.00 0.00 86 1008.8
20260904014947 20 150 1.6 11.3 0.00 0.00 0.00 86 1008.8
20260904014447 20 127 1.6 9.7 0.00 0.00 0.00 85 1008.8
20260904013952 20 147 6.4 9.7 0.00 0.00 0.00 85 1008.5
20260904013447 20 144 3.2 8.0 0.00 0.00 0.00 85 1008.8
20260904012946 20 133 1.6 3.2 0.00 0.00 0.00 85 1008.8
20260904012447 20 102 1.6 9.7 0.00 0.00 0.00 85 1009.1
20260904011945 20 208 3.2 9.7 0.00 0.00 0.00 85 1009.1
20260904011446 20 178 1.6 3.2 0.00 0.00 0.00 85 1008.8
20260904010946 20 143 8.0 9.7 0.00 0.00 0.00 85 1009.1
20260904010447 20 130 1.6 3.2 0.00 0.00 0.00 85 1009.1
20260904005946 20 165 3.2 4.8 0.00 0.00 0.00 85 1009.1
20260904005446 20 149 1.6 8.0 0.00 0.00 0.00 85 1009.1
20260904004946 20 121 4.8 8.0 0.00 0.00 0.00 84 1009.5
20260904004446 20 255 6.4 11.3 0.00 0.00 0.00 84 1009.5
20260904003946 20 173 4.8 8.0 0.00 0.00 0.00 84 1009.5
20260904003447 20 125 3.2 3.2 0.00 0.00 0.00 84 1009.1